Location: Poughquag
(41.6090°N, 73.6820°W)
Time: 19:23:00
(UTC-04:00)

Hubble Space Telescope - Pass Details

Date: 01 October 2020
Orbit: 536 x 540 km, 28.5° (Epoch: 29 October)

Event Time Altitude Azimuth Distance (km) Brightness Sun altitude
Exits shadow 06:00:50 - 223° (SW) 2,017 3.3 -10.4°
Reaches altitude 10° 06:02:19 10° 205° (SSW) 1,776 3.1 -10.1°
Maximum altitude 06:03:25 11° 190° (S) 1,718 3.2 -9.9°
Drops below altitude 10° 06:04:31 10° 174° (S) 1,775 3.4 -9.7°
Sets 06:08:25 0° 137° (SE) 2,663 4.9 -9.0°
